Year,Month,Day,Hour,Minute,Value (Times are PST for temperature in C)
2003,10,07,00,00,11.90
2003,10,07,00,01,11.80
2003,10,07,00,02,11.90
2003,10,07,00,03,11.90
2003,10,07,00,04,12.00
2003,10,07,00,05,12.00
2003,10,07,00,06,12.00
2003,10,07,00,07,12.00
2003,10,07,00,08,11.90
2003,10,07,00,09,11.90
2003,10,07,00,10,11.90
2003,10,07,00,11,11.90
2003,10,07,00,12,11.90
2003,10,07,00,13,11.90
2003,10,07,00,14,11.80
2003,10,07,00,15,11.80
2003,10,07,00,16,11.80
2003,10,07,00,17,11.80
2003,10,07,00,18,11.80
2003,10,07,00,19,11.70
2003,10,07,00,20,11.70
2003,10,07,00,21,11.60
2003,10,07,00,22,11.60
2003,10,07,00,23,11.60
2003,10,07,00,24,11.60
2003,10,07,00,25,11.60
2003,10,07,00,26,11.60
2003,10,07,00,27,11.60
2003,10,07,00,28,11.60
2003,10,07,00,29,11.60
2003,10,07,00,30,11.60
2003,10,07,00,31,11.60
2003,10,07,00,32,11.60
2003,10,07,00,33,11.60
2003,10,07,00,34,11.60
2003,10,07,00,35,11.60
2003,10,07,00,36,11.60
2003,10,07,00,37,11.60
2003,10,07,00,38,11.60
2003,10,07,00,39,11.60
2003,10,07,00,40,11.60
2003,10,07,00,41,11.60
2003,10,07,00,42,11.60
2003,10,07,00,43,11.60
2003,10,07,00,44,11.60
2003,10,07,00,45,11.60
2003,10,07,00,46,11.60
2003,10,07,00,47,11.60
2003,10,07,00,48,11.60
2003,10,07,00,49,11.60
2003,10,07,00,50,11.70
2003,10,07,00,51,11.70
2003,10,07,00,52,11.80
2003,10,07,00,53,11.70
2003,10,07,00,54,11.70
2003,10,07,00,55,11.70
2003,10,07,00,56,11.80
2003,10,07,00,57,11.80
2003,10,07,00,58,11.80
2003,10,07,00,59,11.80
2003,10,07,01,00,11.80
2003,10,07,01,01,11.80
2003,10,07,01,02,11.80
2003,10,07,01,03,11.80
2003,10,07,01,04,11.80
2003,10,07,01,05,11.80
2003,10,07,01,06,11.80
2003,10,07,01,07,11.80
2003,10,07,01,08,11.80
2003,10,07,01,09,11.80
2003,10,07,01,10,11.80
2003,10,07,01,11,11.90
2003,10,07,01,12,11.90
2003,10,07,01,13,11.80
2003,10,07,01,14,11.90
2003,10,07,01,15,11.80
2003,10,07,01,16,11.90
2003,10,07,01,17,11.80
2003,10,07,01,18,11.90
2003,10,07,01,19,11.90
2003,10,07,01,20,11.90
2003,10,07,01,21,11.80
2003,10,07,01,22,11.80
2003,10,07,01,23,11.80
2003,10,07,01,24,11.80
2003,10,07,01,25,11.90
2003,10,07,01,26,11.90
2003,10,07,01,27,11.80
2003,10,07,01,28,11.80
2003,10,07,01,29,11.80
2003,10,07,01,30,11.80
2003,10,07,01,31,11.80
2003,10,07,01,32,11.80
2003,10,07,01,33,11.80
2003,10,07,01,34,11.80
2003,10,07,01,35,11.80
2003,10,07,01,36,11.80
2003,10,07,01,37,11.80
2003,10,07,01,38,11.80
2003,10,07,01,39,11.80
2003,10,07,01,40,11.80
2003,10,07,01,41,11.80
2003,10,07,01,42,11.80
2003,10,07,01,43,11.80
2003,10,07,01,44,11.80
2003,10,07,01,45,11.90
2003,10,07,01,46,11.90
2003,10,07,01,47,11.90
2003,10,07,01,48,11.90
2003,10,07,01,49,11.90
2003,10,07,01,50,11.90
2003,10,07,01,51,11.90
2003,10,07,01,52,11.90
2003,10,07,01,53,12.00
2003,10,07,01,54,12.00
2003,10,07,01,55,12.00
2003,10,07,01,56,12.00
2003,10,07,01,57,12.00
2003,10,07,01,58,12.10
2003,10,07,01,59,12.10
2003,10,07,02,00,12.10
2003,10,07,02,01,12.10
2003,10,07,02,02,12.10
2003,10,07,02,03,12.10
2003,10,07,02,04,12.10
2003,10,07,02,05,12.20
2003,10,07,02,06,12.20
2003,10,07,02,07,12.20
2003,10,07,02,08,12.20
2003,10,07,02,09,12.10
2003,10,07,02,10,12.10
2003,10,07,02,11,12.20
2003,10,07,02,12,12.20
2003,10,07,02,13,12.20
2003,10,07,02,14,12.20
2003,10,07,02,15,12.20
2003,10,07,02,16,12.20
2003,10,07,02,17,12.20
2003,10,07,02,18,12.20
2003,10,07,02,19,12.20
2003,10,07,02,20,12.20
2003,10,07,02,21,12.30
2003,10,07,02,22,12.20
2003,10,07,02,23,12.20
2003,10,07,02,24,12.20
2003,10,07,02,25,12.30
2003,10,07,02,26,12.30
2003,10,07,02,27,12.30
2003,10,07,02,28,12.30
2003,10,07,02,29,12.30
2003,10,07,02,30,12.20
2003,10,07,02,31,12.20
2003,10,07,02,32,12.30
2003,10,07,02,33,12.30
2003,10,07,02,34,12.30
2003,10,07,02,35,12.20
2003,10,07,02,36,12.20
2003,10,07,02,37,12.20
2003,10,07,02,38,12.20
2003,10,07,02,39,12.30
2003,10,07,02,40,12.30
2003,10,07,02,41,12.30
2003,10,07,02,42,12.20
2003,10,07,02,43,12.20
2003,10,07,02,44,12.20
2003,10,07,02,45,12.20
2003,10,07,02,46,12.20
2003,10,07,02,47,12.20
2003,10,07,02,48,12.20
2003,10,07,02,49,12.10
2003,10,07,02,50,12.10
2003,10,07,02,51,12.10
2003,10,07,02,52,12.20
2003,10,07,02,53,12.20
2003,10,07,02,54,12.20
2003,10,07,02,55,12.10
2003,10,07,02,56,12.10
2003,10,07,02,57,12.10
2003,10,07,02,58,12.10
2003,10,07,02,59,12.10
2003,10,07,03,00,12.10
2003,10,07,03,01,12.10
2003,10,07,03,02,12.10
2003,10,07,03,03,12.00
2003,10,07,03,04,11.90
2003,10,07,03,05,12.00
2003,10,07,03,06,12.00
2003,10,07,03,07,11.90
2003,10,07,03,08,11.90
2003,10,07,03,09,11.90
2003,10,07,03,10,11.80
2003,10,07,03,11,11.80
2003,10,07,03,12,11.90
2003,10,07,03,13,12.00
2003,10,07,03,14,12.00
2003,10,07,03,15,12.00
2003,10,07,03,16,11.90
2003,10,07,03,17,11.90
2003,10,07,03,18,11.80
2003,10,07,03,19,11.80
2003,10,07,03,20,11.90
2003,10,07,03,21,11.80
2003,10,07,03,22,11.80
2003,10,07,03,23,11.80
2003,10,07,03,24,11.80
2003,10,07,03,25,11.80
2003,10,07,03,26,11.80
2003,10,07,03,27,11.80
2003,10,07,03,28,11.90
2003,10,07,03,29,11.80
2003,10,07,03,30,11.80
2003,10,07,03,31,11.80
2003,10,07,03,32,11.80
2003,10,07,03,33,11.80
2003,10,07,03,34,11.80
2003,10,07,03,35,11.80
2003,10,07,03,36,11.80
2003,10,07,03,37,11.80
2003,10,07,03,38,11.80
2003,10,07,03,39,11.80
2003,10,07,03,40,11.80
2003,10,07,03,41,11.80
2003,10,07,03,42,11.70
2003,10,07,03,43,11.70
2003,10,07,03,44,11.70
2003,10,07,03,45,11.70
2003,10,07,03,46,11.80
2003,10,07,03,47,11.80
2003,10,07,03,48,11.70
2003,10,07,03,49,11.70
2003,10,07,03,50,11.70
2003,10,07,03,51,11.70
2003,10,07,03,52,11.80
2003,10,07,03,53,11.80
2003,10,07,03,54,11.70
2003,10,07,03,55,11.70
2003,10,07,03,56,11.70
2003,10,07,03,57,11.70
2003,10,07,03,58,11.80
2003,10,07,03,59,11.80
2003,10,07,04,00,11.90
2003,10,07,04,01,11.80
2003,10,07,04,02,11.80
2003,10,07,04,03,11.90
2003,10,07,04,04,12.00
2003,10,07,04,05,12.00
2003,10,07,04,06,12.00
2003,10,07,04,07,12.00
2003,10,07,04,08,12.00
2003,10,07,04,09,12.00
2003,10,07,04,10,12.10
2003,10,07,04,11,12.20
2003,10,07,04,12,12.20
2003,10,07,04,13,12.20
2003,10,07,04,14,12.20
2003,10,07,04,15,12.20
2003,10,07,04,16,12.10
2003,10,07,04,17,12.20
2003,10,07,04,18,12.20
2003,10,07,04,19,12.30
2003,10,07,04,20,12.30
2003,10,07,04,21,12.20
2003,10,07,04,22,12.20
2003,10,07,04,23,12.30
2003,10,07,04,24,12.20
2003,10,07,04,25,12.20
2003,10,07,04,26,12.20
2003,10,07,04,27,12.10
2003,10,07,04,28,12.10
2003,10,07,04,29,12.10
2003,10,07,04,30,12.10
2003,10,07,04,31,12.20
2003,10,07,04,32,12.10
2003,10,07,04,33,12.10
2003,10,07,04,34,12.10
2003,10,07,04,35,12.10
2003,10,07,04,36,12.20
2003,10,07,04,37,12.20
2003,10,07,04,38,12.20
2003,10,07,04,39,12.20
2003,10,07,04,40,12.20
2003,10,07,04,41,12.20
2003,10,07,04,42,12.20
2003,10,07,04,43,12.30
2003,10,07,04,44,12.30
2003,10,07,04,45,12.30
2003,10,07,04,46,12.30
2003,10,07,04,47,12.30
2003,10,07,04,48,12.30
2003,10,07,04,49,12.30
2003,10,07,04,50,12.40
2003,10,07,04,51,12.40
2003,10,07,04,52,12.40
2003,10,07,04,53,12.40
2003,10,07,04,54,12.40
2003,10,07,04,55,12.40
2003,10,07,04,56,12.40
2003,10,07,04,57,12.40
2003,10,07,04,58,12.40
2003,10,07,04,59,12.40
2003,10,07,05,00,12.40
2003,10,07,05,01,12.40
2003,10,07,05,02,12.40
2003,10,07,05,03,12.40
2003,10,07,05,04,12.50
2003,10,07,05,05,12.50
2003,10,07,05,06,12.50
2003,10,07,05,07,12.50
2003,10,07,05,08,12.50
2003,10,07,05,09,12.50
2003,10,07,05,10,12.50
2003,10,07,05,11,12.50
2003,10,07,05,12,12.50
2003,10,07,05,13,12.50
2003,10,07,05,14,12.50
2003,10,07,05,15,12.50
2003,10,07,05,16,12.50
2003,10,07,05,17,12.50
2003,10,07,05,18,12.50
2003,10,07,05,19,12.50
2003,10,07,05,20,12.50
2003,10,07,05,21,12.50
2003,10,07,05,22,12.50
2003,10,07,05,23,12.50
2003,10,07,05,24,12.50
2003,10,07,05,25,12.50
2003,10,07,05,26,12.50
2003,10,07,05,27,12.50
2003,10,07,05,28,12.50
2003,10,07,05,29,12.50
2003,10,07,05,30,12.40
2003,10,07,05,31,12.50
2003,10,07,05,32,12.50
2003,10,07,05,33,12.50
2003,10,07,05,34,12.40
2003,10,07,05,35,12.40
2003,10,07,05,36,12.30
2003,10,07,05,37,12.30
2003,10,07,05,38,12.30
2003,10,07,05,39,12.30
2003,10,07,05,40,12.30
2003,10,07,05,41,12.30
2003,10,07,05,42,12.30
2003,10,07,05,43,12.30
2003,10,07,05,44,12.30
2003,10,07,05,45,12.30
2003,10,07,05,46,12.30
2003,10,07,05,47,12.30
2003,10,07,05,48,12.30
2003,10,07,05,49,12.30
2003,10,07,05,50,12.30
2003,10,07,05,51,12.40
2003,10,07,05,52,12.40
2003,10,07,05,53,12.40
2003,10,07,05,54,12.40
2003,10,07,05,55,12.40
2003,10,07,05,56,12.40
2003,10,07,05,57,12.40
2003,10,07,05,58,12.50
2003,10,07,05,59,12.50
2003,10,07,06,00,12.50
2003,10,07,06,01,12.50
2003,10,07,06,02,12.50
2003,10,07,06,03,12.50
2003,10,07,06,04,12.50
2003,10,07,06,05,12.50
2003,10,07,06,06,12.60
2003,10,07,06,07,12.60
2003,10,07,06,08,12.60
2003,10,07,06,09,12.60
2003,10,07,06,10,12.60
2003,10,07,06,11,12.60
2003,10,07,06,12,12.60
2003,10,07,06,13,12.60
2003,10,07,06,14,12.70
2003,10,07,06,15,12.70
2003,10,07,06,16,12.70
2003,10,07,06,17,12.60
2003,10,07,06,18,12.70
2003,10,07,06,19,12.80
2003,10,07,06,20,12.80
2003,10,07,06,21,12.80
2003,10,07,06,22,12.80
2003,10,07,06,23,12.80
2003,10,07,06,24,12.80
2003,10,07,06,25,12.80
2003,10,07,06,26,12.80
2003,10,07,06,27,12.80
2003,10,07,06,28,12.80
2003,10,07,06,29,12.80
2003,10,07,06,30,12.80
2003,10,07,06,31,12.90
2003,10,07,06,32,13.00
2003,10,07,06,33,13.00
2003,10,07,06,34,13.00
2003,10,07,06,35,13.00
2003,10,07,06,36,12.90
2003,10,07,06,37,12.90
2003,10,07,06,38,12.90
2003,10,07,06,39,12.90
2003,10,07,06,40,13.00
2003,10,07,06,41,13.00
2003,10,07,06,42,13.00
2003,10,07,06,43,13.00
2003,10,07,06,44,13.00
2003,10,07,06,45,13.00
2003,10,07,06,46,13.00
2003,10,07,06,47,13.10
2003,10,07,06,48,13.00
2003,10,07,06,49,13.00
2003,10,07,06,50,12.90
2003,10,07,06,51,12.90
2003,10,07,06,52,12.90
2003,10,07,06,53,12.90
2003,10,07,06,54,12.90
2003,10,07,06,55,12.90
2003,10,07,06,56,12.80
2003,10,07,06,57,12.90
2003,10,07,06,58,12.80
2003,10,07,06,59,12.80
2003,10,07,07,00,12.90
2003,10,07,07,01,12.90
2003,10,07,07,02,12.90
2003,10,07,07,03,12.90
2003,10,07,07,04,12.80
2003,10,07,07,05,12.80
2003,10,07,07,06,12.80
2003,10,07,07,07,12.80
2003,10,07,07,08,12.80
2003,10,07,07,09,12.70
2003,10,07,07,10,12.70
2003,10,07,07,11,12.70
2003,10,07,07,12,12.80
2003,10,07,07,13,12.80
2003,10,07,07,14,12.80
2003,10,07,07,15,12.80
2003,10,07,07,16,12.80
2003,10,07,07,17,12.70
2003,10,07,07,18,12.70
2003,10,07,07,19,12.70
2003,10,07,07,20,12.70
2003,10,07,07,21,12.70
2003,10,07,07,22,12.60
2003,10,07,07,23,12.60
2003,10,07,07,24,12.60
2003,10,07,07,25,12.60
2003,10,07,07,26,12.70
2003,10,07,07,27,12.70
2003,10,07,07,28,12.70
2003,10,07,07,29,12.70
2003,10,07,07,30,12.70
2003,10,07,07,31,12.70
2003,10,07,07,32,12.70
2003,10,07,07,33,12.70
2003,10,07,07,34,12.80
2003,10,07,07,35,12.80
2003,10,07,07,36,12.80
2003,10,07,07,37,12.80
2003,10,07,07,38,12.70
2003,10,07,07,39,12.80
2003,10,07,07,40,12.80
2003,10,07,07,41,12.80
2003,10,07,07,42,12.80
2003,10,07,07,43,12.70
2003,10,07,07,44,12.70
2003,10,07,07,45,12.70
2003,10,07,07,46,12.70
2003,10,07,07,47,12.70
2003,10,07,07,48,12.60
2003,10,07,07,49,12.60
2003,10,07,07,50,12.50
2003,10,07,07,51,12.50
2003,10,07,07,52,12.50
2003,10,07,07,53,12.60
2003,10,07,07,54,12.50
2003,10,07,07,55,12.50
2003,10,07,07,56,12.50
2003,10,07,07,57,12.50
2003,10,07,07,58,12.50
2003,10,07,07,59,12.60
2003,10,07,08,00,12.60
2003,10,07,08,01,12.60
2003,10,07,08,02,12.60
2003,10,07,08,03,12.60
2003,10,07,08,04,12.60
2003,10,07,08,05,12.70
2003,10,07,08,06,12.70
2003,10,07,08,07,12.80
2003,10,07,08,08,12.80
2003,10,07,08,09,12.80
2003,10,07,08,10,12.70
2003,10,07,08,11,12.80
2003,10,07,08,12,12.90
2003,10,07,08,13,12.90
2003,10,07,08,14,12.90
2003,10,07,08,15,12.80
2003,10,07,08,16,12.90
2003,10,07,08,17,12.90
2003,10,07,08,18,12.90
2003,10,07,08,19,13.00
2003,10,07,08,20,13.00
2003,10,07,08,21,13.00
2003,10,07,08,22,12.90
2003,10,07,08,23,12.90
2003,10,07,08,24,13.00
2003,10,07,08,25,13.00
2003,10,07,08,26,13.00
2003,10,07,08,27,13.00
2003,10,07,08,28,13.00
2003,10,07,08,29,13.00
2003,10,07,08,30,13.00
2003,10,07,08,31,13.10
2003,10,07,08,32,13.10
2003,10,07,08,33,13.10
2003,10,07,08,34,13.10
2003,10,07,08,35,13.10
2003,10,07,08,36,13.10
2003,10,07,08,37,13.10
2003,10,07,08,38,13.10
2003,10,07,08,39,13.10
2003,10,07,08,40,13.10
2003,10,07,08,41,13.10
2003,10,07,08,42,13.10
2003,10,07,08,43,13.00
2003,10,07,08,44,13.10
2003,10,07,08,45,13.10
2003,10,07,08,46,13.20
2003,10,07,08,47,13.20
2003,10,07,08,48,13.20
2003,10,07,08,49,13.10
2003,10,07,08,50,13.10
2003,10,07,08,51,13.20
2003,10,07,08,52,13.30
2003,10,07,08,53,13.30
2003,10,07,08,54,13.30
2003,10,07,08,55,13.20
2003,10,07,08,56,13.20
2003,10,07,08,57,13.20
2003,10,07,08,58,13.20
2003,10,07,08,59,13.20
2003,10,07,09,00,13.20
2003,10,07,09,01,13.20
2003,10,07,09,02,13.20
2003,10,07,09,03,13.20
2003,10,07,09,04,13.30
2003,10,07,09,05,13.30
2003,10,07,09,06,13.30
2003,10,07,09,07,13.40
2003,10,07,09,08,13.40
2003,10,07,09,09,13.40
2003,10,07,09,10,13.50
2003,10,07,09,11,13.60
2003,10,07,09,12,13.70
2003,10,07,09,13,13.80
2003,10,07,09,14,13.90
2003,10,07,09,15,14.00
2003,10,07,09,16,14.10
2003,10,07,09,17,14.10
2003,10,07,09,18,14.20
2003,10,07,09,19,14.40
2003,10,07,09,20,14.50
2003,10,07,09,21,14.50
2003,10,07,09,22,14.50
2003,10,07,09,23,14.50
2003,10,07,09,24,14.60
2003,10,07,09,25,14.60
2003,10,07,09,26,14.60
2003,10,07,09,27,14.70
2003,10,07,09,28,14.60
2003,10,07,09,29,14.50
2003,10,07,09,30,14.40
2003,10,07,09,31,14.50
2003,10,07,09,32,14.50
2003,10,07,09,33,14.50
2003,10,07,09,34,14.50
2003,10,07,09,35,14.60
2003,10,07,09,36,14.50
2003,10,07,09,37,14.50
2003,10,07,09,38,14.50
2003,10,07,09,39,14.50
2003,10,07,09,40,14.50
2003,10,07,09,41,14.60
2003,10,07,09,42,14.50
2003,10,07,09,43,14.50
2003,10,07,09,44,14.50
2003,10,07,09,45,14.60
2003,10,07,09,46,14.60
2003,10,07,09,47,14.60
2003,10,07,09,48,14.60
2003,10,07,09,49,14.60
2003,10,07,09,50,14.60
2003,10,07,09,51,14.60
2003,10,07,09,52,14.60
2003,10,07,09,53,14.60
2003,10,07,09,54,14.70
2003,10,07,09,55,14.80
2003,10,07,09,56,14.80
2003,10,07,09,57,14.80
2003,10,07,09,58,14.60
2003,10,07,09,59,14.70
2003,10,07,10,00,14.80
2003,10,07,10,01,14.80
2003,10,07,10,02,14.90
2003,10,07,10,03,14.90
2003,10,07,10,04,14.90
2003,10,07,10,05,15.00
2003,10,07,10,06,15.10
2003,10,07,10,07,15.10
2003,10,07,10,08,15.10
2003,10,07,10,09,15.00
2003,10,07,10,10,15.00
2003,10,07,10,11,14.90
2003,10,07,10,12,14.90
2003,10,07,10,13,15.00
2003,10,07,10,14,15.00
2003,10,07,10,15,15.10
2003,10,07,10,16,15.20
2003,10,07,10,17,15.10
2003,10,07,10,18,15.10
2003,10,07,10,19,15.10
2003,10,07,10,20,15.20
2003,10,07,10,21,15.20
2003,10,07,10,22,15.30
2003,10,07,10,23,15.30
2003,10,07,10,24,15.30
2003,10,07,10,25,15.30
2003,10,07,10,26,15.20
2003,10,07,10,27,15.30
2003,10,07,10,28,15.40
2003,10,07,10,29,15.40
2003,10,07,10,30,15.50
2003,10,07,10,31,15.50
2003,10,07,10,32,15.50
2003,10,07,10,33,15.50
2003,10,07,10,34,15.50
2003,10,07,10,35,15.60
2003,10,07,10,36,15.70
2003,10,07,10,37,15.80
2003,10,07,10,38,15.80
2003,10,07,10,39,15.80
2003,10,07,10,40,15.80
2003,10,07,10,41,15.90
2003,10,07,10,42,16.00
2003,10,07,10,43,16.00
2003,10,07,10,44,16.10
2003,10,07,10,45,16.10
2003,10,07,10,46,16.10
2003,10,07,10,47,15.90
2003,10,07,10,48,16.00
2003,10,07,10,49,16.00
2003,10,07,10,50,16.10
2003,10,07,10,51,16.10
2003,10,07,10,52,16.20
2003,10,07,10,53,16.20
2003,10,07,10,54,16.20
2003,10,07,10,55,16.30
2003,10,07,10,56,16.30
2003,10,07,10,57,16.40
2003,10,07,10,58,16.30
2003,10,07,10,59,16.30
2003,10,07,11,00,16.30
2003,10,07,11,01,16.20
2003,10,07,11,02,16.20
2003,10,07,11,03,16.20
2003,10,07,11,04,16.20
2003,10,07,11,05,16.20
2003,10,07,11,06,16.20
2003,10,07,11,07,16.20
2003,10,07,11,08,16.40
2003,10,07,11,09,16.40
2003,10,07,11,10,16.40
2003,10,07,11,11,16.40
2003,10,07,11,12,16.40
2003,10,07,11,13,16.30
2003,10,07,11,14,16.20
2003,10,07,11,15,16.30
2003,10,07,11,16,16.40
2003,10,07,11,17,16.40
2003,10,07,11,18,16.30
2003,10,07,11,19,16.40
2003,10,07,11,20,16.40
2003,10,07,11,21,16.40
2003,10,07,11,22,16.50
2003,10,07,11,23,16.40
2003,10,07,11,24,16.60
2003,10,07,11,25,16.70
2003,10,07,11,26,16.70
2003,10,07,11,27,16.70
2003,10,07,11,28,16.70
2003,10,07,11,29,16.70
2003,10,07,11,30,16.80
2003,10,07,11,31,16.80
2003,10,07,11,32,16.90
2003,10,07,11,33,17.00
2003,10,07,11,34,17.00
2003,10,07,11,35,17.00
2003,10,07,11,36,17.00
2003,10,07,11,37,17.00
2003,10,07,11,38,17.00
2003,10,07,11,39,16.90
2003,10,07,11,40,16.90
2003,10,07,11,41,16.90
2003,10,07,11,42,16.90
2003,10,07,11,43,16.80
2003,10,07,11,44,16.80
2003,10,07,11,45,16.80
2003,10,07,11,46,16.70
2003,10,07,11,47,16.70
2003,10,07,11,48,16.60
2003,10,07,11,49,16.50
2003,10,07,11,50,16.50
2003,10,07,11,51,16.60
2003,10,07,11,52,16.70
2003,10,07,11,53,16.70
2003,10,07,11,54,16.70
2003,10,07,11,55,16.70
2003,10,07,11,56,16.70
2003,10,07,11,57,16.70
2003,10,07,11,58,16.60
2003,10,07,11,59,16.40
2003,10,07,12,00,16.40
2003,10,07,12,01,16.40
2003,10,07,12,02,16.40
2003,10,07,12,03,16.40
2003,10,07,12,04,16.40
2003,10,07,12,05,16.40
2003,10,07,12,06,16.40
2003,10,07,12,07,16.30
2003,10,07,12,08,16.20
2003,10,07,12,09,16.20
2003,10,07,12,10,16.10
2003,10,07,12,11,16.20
2003,10,07,12,12,16.20
2003,10,07,12,13,16.20
2003,10,07,12,14,16.30
2003,10,07,12,15,16.30
2003,10,07,12,16,16.30
2003,10,07,12,17,16.30
2003,10,07,12,18,16.30
2003,10,07,12,19,16.30
2003,10,07,12,20,16.40
2003,10,07,12,21,16.30
2003,10,07,12,22,16.20
2003,10,07,12,23,16.30
2003,10,07,12,24,16.40
2003,10,07,12,25,16.50
2003,10,07,12,26,16.60
2003,10,07,12,27,16.60
2003,10,07,12,28,16.70
2003,10,07,12,29,16.70
2003,10,07,12,30,16.60
2003,10,07,12,31,16.50
2003,10,07,12,32,16.40
2003,10,07,12,33,16.60
2003,10,07,12,34,16.70
2003,10,07,12,35,16.70
2003,10,07,12,36,16.50
2003,10,07,12,37,16.50
2003,10,07,12,38,16.50
2003,10,07,12,39,16.50
2003,10,07,12,40,16.70
2003,10,07,12,41,16.80
2003,10,07,12,42,16.70
2003,10,07,12,43,16.80
2003,10,07,12,44,16.60
2003,10,07,12,45,16.50
2003,10,07,12,46,16.60
2003,10,07,12,47,16.70
2003,10,07,12,48,16.80
2003,10,07,12,49,17.00
2003,10,07,12,50,17.00
2003,10,07,12,51,17.10
2003,10,07,12,52,17.10
2003,10,07,12,53,17.00
2003,10,07,12,54,17.00
2003,10,07,12,55,17.00
2003,10,07,12,56,17.00
2003,10,07,12,57,17.00
2003,10,07,12,58,17.00
2003,10,07,12,59,16.80
2003,10,07,13,00,16.80
2003,10,07,13,01,16.80
2003,10,07,13,02,16.80
2003,10,07,13,03,16.70
2003,10,07,13,04,16.80
2003,10,07,13,05,16.90
2003,10,07,13,06,16.90
2003,10,07,13,07,16.90
2003,10,07,13,08,16.90
2003,10,07,13,09,16.80
2003,10,07,13,10,16.80
2003,10,07,13,11,16.70
2003,10,07,13,12,16.70
2003,10,07,13,13,16.70
2003,10,07,13,14,16.80
2003,10,07,13,15,16.80
2003,10,07,13,16,16.80
2003,10,07,13,17,16.80
2003,10,07,13,18,16.90
2003,10,07,13,19,17.00
2003,10,07,13,20,17.00
2003,10,07,13,21,17.00
2003,10,07,13,22,17.10
2003,10,07,13,23,17.10
2003,10,07,13,24,17.00
2003,10,07,13,25,17.00
2003,10,07,13,26,17.00
2003,10,07,13,27,17.00
2003,10,07,13,28,17.20
2003,10,07,13,29,17.30
2003,10,07,13,30,17.30
2003,10,07,13,31,17.40
2003,10,07,13,32,17.50
2003,10,07,13,33,17.50
2003,10,07,13,34,17.50
2003,10,07,13,35,17.50
2003,10,07,13,36,17.50
2003,10,07,13,37,17.50
2003,10,07,13,38,17.40
2003,10,07,13,39,17.50
2003,10,07,13,40,17.60
2003,10,07,13,41,17.70
2003,10,07,13,42,17.70
2003,10,07,13,43,17.80
2003,10,07,13,44,17.80
2003,10,07,13,45,17.90
2003,10,07,13,46,17.90
2003,10,07,13,47,17.90
2003,10,07,13,48,18.00
2003,10,07,13,49,18.10
2003,10,07,13,50,18.10
2003,10,07,13,51,18.20
2003,10,07,13,52,18.10
2003,10,07,13,53,18.20
2003,10,07,13,54,18.00
2003,10,07,13,55,17.90
2003,10,07,13,56,17.80
2003,10,07,13,57,17.90
2003,10,07,13,58,18.00
2003,10,07,13,59,18.10
2003,10,07,14,00,18.20
2003,10,07,14,01,18.20
2003,10,07,14,02,18.30
2003,10,07,14,03,18.50
2003,10,07,14,04,18.30
2003,10,07,14,05,18.30
2003,10,07,14,06,18.30
2003,10,07,14,07,18.50
2003,10,07,14,08,18.50
2003,10,07,14,09,18.30
2003,10,07,14,10,18.10
2003,10,07,14,11,18.10
2003,10,07,14,12,18.00
2003,10,07,14,13,18.10
2003,10,07,14,14,18.30
2003,10,07,14,15,18.30
2003,10,07,14,16,18.40
2003,10,07,14,17,18.50
2003,10,07,14,18,18.60
2003,10,07,14,19,18.50
2003,10,07,14,20,18.50
2003,10,07,14,21,18.50
2003,10,07,14,22,18.50
2003,10,07,14,23,18.50
2003,10,07,14,24,18.60
2003,10,07,14,25,18.60
2003,10,07,14,26,18.70
2003,10,07,14,27,18.80
2003,10,07,14,28,18.70
2003,10,07,14,29,18.70
2003,10,07,14,30,18.70
2003,10,07,14,31,18.50
2003,10,07,14,32,18.40
2003,10,07,14,33,18.20
2003,10,07,14,34,18.20
2003,10,07,14,35,18.10
2003,10,07,14,36,18.10
2003,10,07,14,37,18.00
2003,10,07,14,38,18.20
2003,10,07,14,39,18.40
2003,10,07,14,40,18.50
2003,10,07,14,41,18.50
2003,10,07,14,42,18.60
2003,10,07,14,43,18.50
2003,10,07,14,44,18.50
2003,10,07,14,45,18.60
2003,10,07,14,46,18.60
2003,10,07,14,47,18.70
2003,10,07,14,48,18.70
2003,10,07,14,49,18.70
2003,10,07,14,50,18.90
2003,10,07,14,51,18.80
2003,10,07,14,52,18.70
2003,10,07,14,53,18.60
2003,10,07,14,54,18.60
2003,10,07,14,55,18.50
2003,10,07,14,56,18.50
2003,10,07,14,57,18.40
2003,10,07,14,58,18.50
2003,10,07,14,59,18.50
2003,10,07,15,00,18.50
2003,10,07,15,01,18.50
2003,10,07,15,02,18.60
2003,10,07,15,03,18.60
2003,10,07,15,04,18.70
2003,10,07,15,05,18.60
2003,10,07,15,06,18.60
2003,10,07,15,07,18.60
2003,10,07,15,08,18.40
2003,10,07,15,09,18.30
2003,10,07,15,10,18.30
2003,10,07,15,11,18.30
2003,10,07,15,12,18.30
2003,10,07,15,13,18.40
2003,10,07,15,14,18.40
2003,10,07,15,15,18.30
2003,10,07,15,16,18.20
2003,10,07,15,17,18.10
2003,10,07,15,18,18.10
2003,10,07,15,19,18.10
2003,10,07,15,20,18.10
2003,10,07,15,21,18.20
2003,10,07,15,22,18.20
2003,10,07,15,23,18.00
2003,10,07,15,24,17.90
2003,10,07,15,25,17.80
2003,10,07,15,26,17.80
2003,10,07,15,27,17.50
2003,10,07,15,28,17.20
2003,10,07,15,29,16.90
2003,10,07,15,30,16.60
2003,10,07,15,31,16.40
2003,10,07,15,32,16.10
2003,10,07,15,33,16.10
2003,10,07,15,34,16.10
2003,10,07,15,35,16.00
2003,10,07,15,36,16.00
2003,10,07,15,37,16.10
2003,10,07,15,38,15.90
2003,10,07,15,39,15.90
2003,10,07,15,40,15.90
2003,10,07,15,41,15.90
2003,10,07,15,42,16.10
2003,10,07,15,43,16.20
2003,10,07,15,44,16.30
2003,10,07,15,45,16.40
2003,10,07,15,46,16.40
2003,10,07,15,47,16.40
2003,10,07,15,48,16.40
2003,10,07,15,49,16.30
2003,10,07,15,50,16.40
2003,10,07,15,51,16.40
2003,10,07,15,52,16.50
2003,10,07,15,53,16.60
2003,10,07,15,54,16.70
2003,10,07,15,55,16.80
2003,10,07,15,56,16.90
2003,10,07,15,57,16.90
2003,10,07,15,58,17.00
2003,10,07,15,59,16.90
2003,10,07,16,00,16.80
2003,10,07,16,01,16.70
2003,10,07,16,02,16.40
2003,10,07,16,03,16.30
2003,10,07,16,04,16.10
2003,10,07,16,05,16.10
2003,10,07,16,06,16.00
2003,10,07,16,07,16.10
2003,10,07,16,08,16.10
2003,10,07,16,09,16.00
2003,10,07,16,10,16.00
2003,10,07,16,11,16.00
2003,10,07,16,12,16.10
2003,10,07,16,13,16.30
2003,10,07,16,14,16.40
2003,10,07,16,15,16.30
2003,10,07,16,16,16.00
2003,10,07,16,17,15.90
2003,10,07,16,18,15.80
2003,10,07,16,19,15.80
2003,10,07,16,20,15.90
2003,10,07,16,21,15.90
2003,10,07,16,22,15.90
2003,10,07,16,23,15.80
2003,10,07,16,24,15.80
2003,10,07,16,25,15.60
2003,10,07,16,26,15.50
2003,10,07,16,27,15.30
2003,10,07,16,28,15.20
2003,10,07,16,29,15.10
2003,10,07,16,30,15.00
2003,10,07,16,31,15.00
2003,10,07,16,32,15.00
2003,10,07,16,33,15.00
2003,10,07,16,34,15.00
2003,10,07,16,35,15.00
2003,10,07,16,36,15.00
2003,10,07,16,37,15.00
2003,10,07,16,38,15.00
2003,10,07,16,39,15.00
2003,10,07,16,40,15.00
2003,10,07,16,41,14.90
2003,10,07,16,42,14.90
2003,10,07,16,43,14.90
2003,10,07,16,44,14.80
2003,10,07,16,45,14.90
2003,10,07,16,46,14.90
2003,10,07,16,47,15.00
2003,10,07,16,48,15.00
2003,10,07,16,49,15.00
2003,10,07,16,50,15.10
2003,10,07,16,51,15.10
2003,10,07,16,52,15.10
2003,10,07,16,53,15.20
2003,10,07,16,54,15.30
2003,10,07,16,55,15.30
2003,10,07,16,56,15.30
2003,10,07,16,57,15.40
2003,10,07,16,58,15.40
2003,10,07,16,59,15.50
2003,10,07,17,00,15.60
2003,10,07,17,01,15.70
2003,10,07,17,02,15.80
2003,10,07,17,03,15.80
2003,10,07,17,04,15.90
2003,10,07,17,05,15.90
2003,10,07,17,06,15.80
2003,10,07,17,07,16.00
2003,10,07,17,08,16.10
2003,10,07,17,09,16.10
2003,10,07,17,10,16.10
2003,10,07,17,11,16.10
2003,10,07,17,12,16.20
2003,10,07,17,13,16.30
2003,10,07,17,14,16.30
2003,10,07,17,15,16.40
2003,10,07,17,16,16.40
2003,10,07,17,17,16.30
2003,10,07,17,18,16.30
2003,10,07,17,19,16.30